DateTimeUTC,F1_A11,F1_S11,BsB_S11,BsG_S11,BsR_S11,BbsB_S11,BbsG_S11,BbsR_S11,BaB_A11,BaG_A11,BaR_A11,Tu_S11,T_S11,Uu_S11,U_S11,P_S11,T1_A11
2021-11-05T11:00:00Z,00000200,21000000,,,,,,,0001.82,0001.45,0001.31,18.9,25.9,,00.0,0650.5,31.1
2021-11-05T11:01:00Z,00000200,21000000,,,,,,,0001.85,0001.39,0001.69,18.8,25.9,,00.0,0650.5,31.0
2021-11-05T11:02:00Z,00000200,21000000,,,,,,,0001.14,0001.53,0000.46,18.8,25.9,,00.0,0650.5,31.0
2021-11-05T11:03:00Z,00000200,61000000,,,,,,,0002.10,0001.60,0001.75,18.8,25.9,,00.0,0650.5,31.0
2021-11-05T11:04:00Z,00000200,41000000,-000.12,0000.26,-000.23,0000.35,0000.07,0000.14,0000.77,0000.87,0001.00,18.8,25.6,,00.0,0651.4,31.1
2021-11-05T11:05:00Z,00000200,01000000,-000.17,0000.05,-000.10,-000.01,-000.10,-000.09,0001.17,0001.08,0000.30,18.9,25.6,,00.0,0651.5,31.1
2021-11-05T11:06:00Z,00000200,01000000,-000.38,0000.08,0000.26,0000.32,-000.00,0000.34,0000.93,0000.98,0000.76,19.0,25.6,,00.0,0651.5,31.1
2021-11-05T11:07:00Z,00000200,01000000,0000.04,0000.19,-000.06,0000.24,-000.09,0000.11,0000.99,0001.03,0000.69,19.1,25.6,,00.0,0651.5,31.1
2021-11-05T11:08:00Z,00000200,01000000,0000.72,0000.77,0000.39,-000.04,0000.00,0000.38,0010.37,0009.60,0007.81,19.1,25.7,,00.0,0651.5,31.1
2021-11-05T11:09:00Z,00000200,01000000,0000.34,0000.72,0000.19,0000.92,0000.35,0000.61,0011.16,0010.42,0008.50,19.2,25.7,,00.0,0651.6,31.1
2021-11-05T11:10:00Z,00000200,01000000,-000.44,-000.42,0000.13,0000.18,0000.23,-000.11,0002.91,0002.45,0002.14,19.3,25.7,,00.0,0651.6,31.1
2021-11-05T11:11:00Z,00000200,01000000,0000.21,0000.60,0000.23,0000.12,0000.19,0000.06,0005.73,0005.19,0004.10,19.3,25.8,,00.0,0651.6,31.1
2021-11-05T11:12:00Z,00000200,01000000,0002.24,0001.94,0001.33,0001.35,0000.51,0000.39,0031.13,0028.76,0022.99,19.4,25.8,,00.0,0651.5,31.2
2021-11-05T11:13:00Z,00000200,01000000,0004.08,0003.29,0002.03,0000.35,0000.75,0000.32,0052.36,0048.79,0039.68,19.3,25.8,,00.0,0651.5,31.1
2021-11-05T11:14:00Z,00000200,01000000,0005.03,0004.99,0002.75,0001.75,0001.26,0000.92,0080.64,0074.99,0060.65,19.2,25.7,,00.0,0651.5,31.1
2021-11-05T11:15:00Z,00000200,01000000,0002.29,0002.40,0000.84,0001.03,0000.45,0000.30,0031.53,0029.34,0023.49,19.1,25.7,,00.0,0651.5,31.1
2021-11-05T11:16:00Z,00000200,01000000,0010.39,0007.80,0004.96,0002.17,0001.86,0001.33,0121.69,0111.75,0089.36,19.1,25.7,,00.0,0651.5,31.1
2021-11-05T11:17:00Z,00000200,01000000,0022.13,0016.41,0010.39,0004.88,0003.87,0003.16,0286.55,0266.34,0214.86,19.0,25.6,,00.0,0651.4,31.0
2021-11-05T11:18:00Z,00000200,01000000,0010.21,0008.22,0004.96,0002.12,0002.17,0001.33,0153.48,0143.02,0115.71,19.0,25.6,,00.0,0651.5,31.1
2021-11-05T11:19:00Z,00000200,01000000,0014.65,0012.32,0007.59,0003.72,0002.92,0002.18,0196.20,0181.75,0146.81,19.0,25.6,,00.0,0651.4,31.1
2021-11-05T11:20:00Z,00000200,01000000,0002.17,0001.68,0001.12,0000.79,0000.74,0000.20,0041.85,0039.34,0032.07,19.1,25.6,,00.0,0651.4,31.1
2021-11-05T11:21:00Z,00000200,01000000,0005.25,0003.23,0001.91,0001.00,0001.06,0000.57,0050.90,0047.36,0038.47,19.1,25.7,,00.0,0651.4,31.1
2021-11-05T11:22:00Z,00000200,01000000,0003.92,0002.61,0001.65,0000.09,0000.79,0000.51,0047.60,0044.50,0035.97,19.2,25.7,,00.0,0651.4,31.1
2021-11-05T11:23:00Z,00000200,01000000,0005.16,0004.15,0002.77,0001.50,0001.33,0000.79,0068.59,0063.67,0051.69,19.3,25.7,,00.0,0651.5,31.1
2021-11-05T11:24:00Z,00000200,01000000,0005.83,0004.21,0002.80,0000.92,0001.01,0000.89,0070.09,0065.19,0052.71,19.4,25.7,,00.0,0651.4,31.1
2021-11-05T11:25:00Z,00000200,01000000,0009.59,0007.66,0004.82,0001.76,0001.85,0001.26,0117.91,0109.08,0088.27,19.4,25.8,,00.0,0651.4,31.1
2021-11-05T11:26:00Z,00000200,01000000,0007.77,0006.19,0003.87,0001.43,0001.43,0001.15,0108.39,0101.50,0082.60,19.3,25.8,,00.0,0651.4,31.1
2021-11-05T11:27:00Z,00000200,01000000,0011.09,0007.60,0005.32,0002.30,0001.82,0001.43,0126.03,0117.32,0094.99,19.3,25.7,,00.0,0651.4,31.1
2021-11-05T11:28:00Z,00000200,01000000,0016.36,0011.92,0007.47,0003.29,0002.90,0001.88,0190.52,0176.48,0142.72,19.2,25.7,,00.0,0651.3,31.1
2021-11-05T11:29:00Z,00000200,01000000,0024.66,0017.66,0011.18,0005.28,0004.12,0002.89,0289.52,0269.28,0218.05,19.1,25.7,,00.0,0651.4,31.1
2021-11-05T11:30:00Z,00000200,01000000,0022.38,0016.38,0010.46,0004.69,0003.75,0002.83,0284.22,0264.24,0214.82,19.0,25.6,,00.0,0651.3,31.1
2021-11-05T11:31:00Z,00000200,01000000,0022.75,0017.41,0010.78,0004.60,0004.09,0002.92,0283.24,0263.57,0214.10,19.0,25.6,,00.0,0651.3,31.0
2021-11-05T11:32:00Z,00000200,01000000,0018.19,0013.38,0008.60,0003.49,0003.00,0002.45,0229.67,0214.54,0174.65,18.9,25.5,,00.0,0651.3,31.0
2021-11-05T11:33:00Z,00000200,01000000,0010.87,0008.19,0005.04,0003.00,0001.79,0001.56,0121.13,0112.20,0091.51,18.9,25.5,,00.0,0651.4,31.1
2021-11-05T11:34:00Z,00000200,01000000,0019.31,0014.03,0008.57,0003.50,0003.49,0002.51,0221.42,0206.70,0168.13,18.9,25.6,,00.0,0651.4,31.1
2021-11-05T11:35:00Z,00000200,01000000,0030.87,0022.37,0014.62,0006.63,0005.25,0004.12,0340.41,0316.97,0258.90,19.0,25.6,,00.0,0651.3,31.1
2021-11-05T11:36:00Z,00000200,01000000,0037.12,0027.69,0017.64,0007.60,0006.51,0004.68,0414.57,0387.11,0317.60,19.1,25.6,,00.0,0651.4,31.1
2021-11-05T11:37:00Z,00000200,01000000,0030.70,0023.92,0014.47,0005.70,0005.38,0004.14,0350.15,0328.25,0269.14,19.1,25.6,,00.0,0651.4,31.1
2021-11-05T11:38:00Z,00000200,01000000,0023.20,0017.72,0011.10,0005.51,0004.05,0003.60,0261.73,0244.80,0200.99,19.2,25.7,,00.0,0651.4,31.1
2021-11-05T11:39:00Z,00000200,01000000,0017.98,0013.40,0008.45,0003.50,0003.34,0002.50,0210.16,0196.39,0161.66,19.3,25.7,,00.0,0651.4,31.1
2021-11-05T11:40:00Z,00000200,01000000,0024.95,0018.97,0011.49,0005.40,0004.91,0003.12,0276.54,0258.44,0211.89,19.4,25.7,,00.0,0651.4,31.2
2021-11-05T11:41:00Z,00000200,01000000,0022.54,0017.37,0011.10,0004.91,0004.01,0003.10,0249.87,0233.59,0191.50,19.4,25.8,,00.0,0651.4,31.1
2021-11-05T11:42:00Z,00000200,01000000,0027.64,0020.89,0013.65,0005.34,0004.94,0003.93,0301.36,0281.73,0232.10,19.4,25.8,,00.0,0651.4,31.1
2021-11-05T11:43:00Z,00000200,01000000,0011.96,0008.62,0005.09,0002.97,0002.14,0001.75,0132.73,0125.23,0103.38,19.3,25.7,,00.0,0651.4,31.1
2021-11-05T11:44:00Z,00000200,01000000,0003.15,0002.65,0001.54,0000.98,0000.42,0000.64,0045.75,0043.21,0035.69,19.3,25.7,,00.0,0651.4,31.1
2021-11-05T11:45:00Z,00000200,01000000,0001.34,0001.02,0000.63,0000.06,0000.31,0000.18,0015.14,0013.99,0011.51,19.2,25.7,,00.0,0651.4,31.1
2021-11-05T11:46:00Z,00000200,01000000,0000.53,0001.36,0000.89,0000.20,0000.30,0000.11,0015.94,0015.05,0012.29,19.1,25.6,,00.0,0651.4,31.1
2021-11-05T11:47:00Z,00000200,01000000,0002.26,0001.76,0000.92,0000.60,0000.37,0000.68,0024.89,0023.14,0019.09,19.1,25.6,,00.0,0651.4,31.1
2021-11-05T11:48:00Z,00000200,01000000,0001.97,0002.15,0001.56,0001.06,0000.58,0000.75,0028.92,0026.96,0022.20,19.1,25.6,,00.0,0651.4,31.1
2021-11-05T11:49:00Z,00000200,01000000,0001.89,0001.19,0000.78,0000.40,0000.38,0000.36,0022.01,0020.43,0017.16,19.1,25.6,,00.0,0651.4,31.1
2021-11-05T11:50:00Z,00000200,01000000,0005.89,0005.10,0002.90,0001.42,0000.95,0001.00,0067.64,0063.23,0051.47,19.1,25.6,,00.0,0651.4,31.1
2021-11-05T11:51:00Z,00000200,01000000,0014.35,0010.47,0007.23,0002.37,0002.76,0001.89,0146.50,0136.76,0112.77,19.2,25.7,,00.0,0651.4,31.1
2021-11-05T11:52:00Z,00000200,01000000,0013.87,0010.86,0006.87,0002.76,0002.34,0002.13,0144.24,0135.25,0111.90,19.3,25.7,,00.0,0651.5,31.1
2021-11-05T11:53:00Z,00000200,01000000,0015.24,0011.67,0006.93,0003.33,0002.43,0002.28,0164.87,0154.52,0127.68,19.3,25.7,,00.0,0651.5,31.1
2021-11-05T11:54:00Z,00000200,01000000,0002.15,0001.37,0000.61,0000.49,0000.24,0000.49,0030.28,0029.04,0023.95,19.4,25.7,,00.0,0651.5,31.2
2021-11-05T11:55:00Z,00000200,01000000,0000.63,0000.59,-000.05,0000.33,0000.04,0000.07,0003.33,0002.43,0002.06,19.4,25.8,,00.0,0651.5,31.1
2021-11-05T11:56:00Z,00000200,01000000,-000.70,-000.04,0000.04,0000.48,-000.13,0000.15,0001.87,0001.91,0002.06,19.3,25.7,,00.0,0651.6,31.1
2021-11-05T11:57:00Z,00000200,41000000,,,,,,,0007.80,0007.67,0005.76,19.3,25.8,,00.0,0651.7,31.1
2021-11-05T11:58:00Z,00000200,61000000,,,,,,,0002.03,0002.08,0001.74,18.9,25.8,,00.0,0650.6,31.1
2021-11-05T11:59:00Z,00000200,21000000,,,,,,,0001.67,0001.60,0001.37,18.8,25.9,,00.0,0650.6,31.1
